EDDN

Nuremberg Airport

Airport
ICAO code
EDDN
IATA Code
NUE
Summary
ICAO Region
EUR
ICAO Territory
Location

Nuremberg, Bavaria, Germany,

Serving
Nuremberg
Elevation
1046 ft
Coordinates
49° 29' 51" N , 11° 4' 37" E
KCC
Airport WX
Fog
Metar
Observation
EDDN 031920Z AUTO 28018KT 9999 -RA BKN012 BKN019 07/05 Q1023 NOSIG
Station
Nuernberg
Date/Time
2023-02-03 19:20:00
Wind direction
280°
Wind speed
18 kts
Lowest cloud amount
broken clouds
Temperature
7°C
Dew point
5°C
Humidity
87%
QNH
1023 hPa
Weather condition
light rain

Description

International airport 5 km north of the city centre.

Climatology

Temperate Marine climate/Oceanic climate (Köppen climate classification Cfb). Moderately cool summer and comparatively warm winter with a temperature range of only 14°C. Prevailing south-westerly winds from the Atlantic Ocean.

Runways

Designator Length Width Surface Rops
10/28 2700 45 ASP Yes/Yes

SKYbrary Partners:

Safety knowledge contributed by: